"Pseudo-MPEC" for P12oG7V

Created 2026 Aug 8 3:35:04 UT using Find_Orb

Click here for an explanation of pseudo-MPECs

 
 Astrometry: 
     P12oG7V*0C2026 07 26.57554200 09 44.733-28 14 59.03   ~7QFZ 20.90wXNEOCPF51
     P12oG7V 0C2026 07 26.59551400 09 45.729-28 15 10.42   ~7QFZ 20.70wXNEOCPF51
     P12oG7V 0C2026 07 26.60547600 09 46.224-28 15 16.10   ~7QFZ 20.90wXNEOCPF51
     P12oG7V 0C2026 07 28.61288300 11 29.606-28 34 42.10   ~7SH5 20.63GVNEOCPF51
     P12oG7V 0C2026 07 28.61370400 11 29.654-28 34 42.66   ~7SH5 20.59GVNEOCPF51

Station data:
(F51) Pan-STARRS 1, Haleakala  (N20.707234 W156.255910)  US/Hawaii.
   Observers J. Herman, T. Lowe, P. Minguez, A. Schultz, I. Smith. Measurers
   K. Chambers, T. de Boer, J. Fairlamb, H. Gao, M. Huber, C.-C. Lin, E.
   Magnier, Y. Ramanjooloo, R. Wainscoat, R. Weryk. 1.8-m Ritchey-Chrétien +
   CCD.

Orbital elements:  P12oG7V
   Perihelion 2026 Nov 25.337707 +/- 75.8 TT =  8:06:17.8 (JD 2461369.837707)
Epoch 2026 Jul 28.0 TT = JDT 2461249.5   Earth MOID: 0.7689      AutoNEOCP
M 333.936819768 +/- 23              (J2000 ecliptic)
n   0.216583654 +/- 0.185           Peri.  311.904278 +/- 70
a   2.746116332 +/- 1.57            Node    72.517061 +/- 22
e   0.37305123 +/- 0.251            Incl.   16.085832 +/- 3.4
P   4.55070                H 17.86  G  0.15   U 11.6  SR
q 1.721674239 +/- 0.507    Q 3.770558425 +/- 44.8
From 5 observations 2026 July 26-28; mean residual 0".04
Residuals in arcseconds: 
260726 F51  .00   .03-    260726 F51  .01-  .02+    260728 F51  .06+  .04-    
260726 F51  .01+  .01+    260728 F51  .06-  .04+    

Ephemerides (geocentric):
Date (UTC) HH   RA             Dec           delta  r     elong  mag " sig PA
---- --------  ------------   ------------  ------ ------ -----  --- --------
2026 08 08 04  00 18 36.338   -30 25 57.79  1.0645 1.9205 135.0 20.5  901  66
2026 08 08 05  00 18 37.597   -30 26 25.64  1.0642 1.9203 135.0 20.5  907  66
2026 08 08 06  00 18 38.853   -30 26 53.50  1.0639 1.9202 135.1 20.5  914  66
2026 08 08 07  00 18 40.105   -30 27 21.37  1.0636 1.9201 135.1 20.5  920  66
2026 08 08 08  00 18 41.354   -30 27 49.25  1.0632 1.9199 135.1 20.5  927  66
2026 08 08 09  00 18 42.599   -30 28 17.13  1.0629 1.9198 135.1 20.5  933  66
2026 08 08 10  00 18 43.841   -30 28 45.03  1.0626 1.9197 135.2 20.5  940  66
2026 08 08 11  00 18 45.078   -30 29 12.93  1.0623 1.9195 135.2 20.5  947  66
2026 08 08 12  00 18 46.313   -30 29 40.84  1.0620 1.9194 135.2 20.5  953  66
2026 08 08 13  00 18 47.543   -30 30 08.76  1.0617 1.9193 135.2 20.5  960  66
2026 08 08 14  00 18 48.771   -30 30 36.69  1.0614 1.9191 135.2 20.5  967  66
2026 08 08 15  00 18 49.994   -30 31 04.62  1.0611 1.9190 135.3 20.5  974  66
2026 08 08 16  00 18 51.214   -30 31 32.56  1.0607 1.9188 135.3 20.5  980  66
2026 08 08 17  00 18 52.430   -30 32 00.51  1.0604 1.9187 135.3 20.5  987  66
2026 08 08 18  00 18 53.643   -30 32 28.47  1.0601 1.9186 135.3 20.5  994  66
2026 08 08 19  00 18 54.852   -30 32 56.44  1.0598 1.9184 135.4 20.5 1001  66
2026 08 08 20  00 18 56.058   -30 33 24.41  1.0595 1.9183 135.4 20.5 1008  66
2026 08 08 21  00 18 57.260   -30 33 52.40  1.0592 1.9182 135.4 20.5 1014  66
2026 08 08 22  00 18 58.458   -30 34 20.39  1.0589 1.9180 135.4 20.5 1021  66
2026 08 08 23  00 18 59.653   -30 34 48.38  1.0586 1.9179 135.5 20.5 1028  66
2026 08 09 00  00 19 00.844   -30 35 16.39  1.0583 1.9178 135.5 20.5 1035  66
2026 08 09 01  00 19 02.032   -30 35 44.40  1.0579 1.9176 135.5 20.5 1042  66
2026 08 09 02  00 19 03.215   -30 36 12.42  1.0576 1.9175 135.5 20.5 1049  66
2026 08 09 03  00 19 04.396   -30 36 40.45  1.0573 1.9174 135.5 20.5 1056  66
2026 08 09 04  00 19 05.572   -30 37 08.49  1.0570 1.9172 135.6 20.5 1063  65
2026 08 09 05  00 19 06.745   -30 37 36.53  1.0567 1.9171 135.6 20.5 1070  65
2026 08 09 06  00 19 07.915   -30 38 04.58  1.0564 1.9169 135.6 20.4 1077  65
2026 08 09 07  00 19 09.080   -30 38 32.64  1.0561 1.9168 135.6 20.4 1084  65
2026 08 09 08  00 19 10.242   -30 39 00.70  1.0558 1.9167 135.7 20.4 1091  65
2026 08 09 09  00 19 11.401   -30 39 28.77  1.0555 1.9165 135.7 20.4 1099  65
2026 08 09 10  00 19 12.556   -30 39 56.85  1.0552 1.9164 135.7 20.4 1106  65
2026 08 09 11  00 19 13.707   -30 40 24.94  1.0549 1.9163 135.7 20.4 1113  65
2026 08 09 12  00 19 14.855   -30 40 53.03  1.0546 1.9161 135.7 20.4 1120  65
2026 08 09 13  00 19 15.998   -30 41 21.14  1.0543 1.9160 135.8 20.4 1127  65
2026 08 09 14  00 19 17.139   -30 41 49.24  1.0540 1.9159 135.8 20.4 1135  65
2026 08 09 15  00 19 18.275   -30 42 17.36  1.0536 1.9157 135.8 20.4 1142  65
2026 08 09 16  00 19 19.408   -30 42 45.48  1.0533 1.9156 135.8 20.4 1149  65
2026 08 09 17  00 19 20.538   -30 43 13.61  1.0530 1.9155 135.9 20.4 1156  65
2026 08 09 18  00 19 21.663   -30 43 41.74  1.0527 1.9153 135.9 20.4 1164  65
2026 08 09 19  00 19 22.785   -30 44 09.88  1.0524 1.9152 135.9 20.4 1171  65
2026 08 09 20  00 19 23.904   -30 44 38.03  1.0521 1.9150 135.9 20.4 1179  65
2026 08 09 21  00 19 25.018   -30 45 06.19  1.0518 1.9149 136.0 20.4 1186  65
2026 08 09 22  00 19 26.129   -30 45 34.35  1.0515 1.9148 136.0 20.4 1193  65
2026 08 09 23  00 19 27.237   -30 46 02.52  1.0512 1.9146 136.0 20.4 1201  65
2026 08 10 00  00 19 28.340   -30 46 30.69  1.0509 1.9145 136.0 20.4 1208  65
2026 08 10 01  00 19 29.440   -30 46 58.88  1.0506 1.9144 136.0 20.4 1216  65
2026 08 10 02  00 19 30.537   -30 47 27.06  1.0503 1.9142 136.1 20.4 1223  65
2026 08 10 03  00 19 31.629   -30 47 55.26  1.0500 1.9141 136.1 20.4 1231  65